TimeEST,TemperatureF,Dew PointF,Humidity,Sea Level PressureIn,VisibilityMPH,Wind Direction,Wind SpeedMPH,Gust SpeedMPH,PrecipitationIn,Events,Conditions,WindDirDegrees,DateUTC
12:24 AM,30.2,30.2,100,29.59,0.8,NNW,8.1,-,0.05,Snow,Light Snow,330,2013-03-06 05:24:00
12:53 AM,30.0,30.0,100,29.63,0.8,NNW,9.2,-,0.09,Snow,Light Snow,330,2013-03-06 05:53:00
1:09 AM,30.2,30.2,100,29.61,0.5,NNW,9.2,-,0.02,Fog-Snow,Snow,340,2013-03-06 06:09:00
1:21 AM,30.2,30.2,100,29.62,0.8,NNW,10.4,-,0.03,Snow,Light Snow,340,2013-03-06 06:21:00
1:53 AM,30.0,28.9,96,29.65,0.8,NNW,12.7,-,0.04,Snow,Light Snow,330,2013-03-06 06:53:00
2:09 AM,30.2,28.4,93,29.64,1.0,NNW,10.4,-,0.01,Snow,Light Snow,330,2013-03-06 07:09:00
2:35 AM,28.4,28.4,100,29.65,0.8,NNW,13.8,19.6,0.01,Snow,Light Snow,330,2013-03-06 07:35:00
2:43 AM,28.4,28.4,100,29.65,1.0,NNW,13.8,19.6,0.01,Snow,Light Snow,340,2013-03-06 07:43:00
2:53 AM,28.9,28.0,96,29.68,1.2,NNW,15.0,20.7,0.01,Snow,Light Snow,340,2013-03-06 07:53:00
3:53 AM,28.0,27.0,96,29.70,1.2,NNW,17.3,24.2,0.01,Snow,Light Snow,340,2013-03-06 08:53:00
4:53 AM,28.0,26.1,92,29.74,1.8,NNW,16.1,24.2,0.00,Snow,Light Snow,340,2013-03-06 09:53:00
5:17 AM,28.4,26.6,93,29.74,1.0,NNW,16.1,24.2,0.00,Snow,Light Snow,340,2013-03-06 10:17:00
5:53 AM,27.0,26.1,96,29.79,1.5,NNW,16.1,24.2,0.00,Snow,Light Snow,340,2013-03-06 10:53:00
6:10 AM,26.6,26.6,100,29.78,2.5,NNW,16.1,24.2,0.00,Snow,Light Snow,340,2013-03-06 11:10:00
6:17 AM,28.4,26.6,93,29.79,4.0,NNW,16.1,26.5,0.00,,Overcast,340,2013-03-06 11:17:00
6:53 AM,28.0,26.1,92,29.85,6.0,North,13.8,25.3,0.00,,Overcast,350,2013-03-06 11:53:00
7:53 AM,28.0,25.0,88,29.91,5.0,North,18.4,25.3,N/A,,Overcast,350,2013-03-06 12:53:00
8:53 AM,27.0,25.0,92,29.97,4.0,NNW,17.3,-,N/A,,Overcast,330,2013-03-06 13:53:00
9:53 AM,28.0,26.1,92,30.01,3.0,NNW,16.1,-,N/A,,Overcast,330,2013-03-06 14:53:00
10:53 AM,28.0,26.1,92,30.06,4.0,North,12.7,-,N/A,,Overcast,350,2013-03-06 15:53:00
11:49 AM,28.4,26.6,93,30.06,5.0,NNW,12.7,-,N/A,,Overcast,340,2013-03-06 16:49:00
11:53 AM,28.9,26.1,89,30.09,5.0,NNW,11.5,-,N/A,,Overcast,340,2013-03-06 16:53:00
12:53 PM,30.0,26.1,85,30.11,5.0,NNW,12.7,-,N/A,,Overcast,340,2013-03-06 17:53:00
1:53 PM,30.9,27.0,85,30.12,6.0,NNW,10.4,-,N/A,,Overcast,330,2013-03-06 18:53:00
2:25 PM,32.0,26.6,80,30.10,7.0,NNW,13.8,-,N/A,,Overcast,330,2013-03-06 19:25:00
2:53 PM,32.0,27.0,82,30.14,6.0,NW,9.2,-,N/A,,Haze,320,2013-03-06 19:53:00
3:06 PM,32.0,26.6,80,30.11,5.0,NNW,10.4,-,N/A,,Haze,330,2013-03-06 20:06:00
3:53 PM,32.0,27.0,82,30.16,5.0,NNW,11.5,-,N/A,,Haze,330,2013-03-06 20:53:00
4:53 PM,32.0,27.0,82,30.17,6.0,NW,9.2,-,N/A,,Haze,320,2013-03-06 21:53:00
5:53 PM,30.9,26.1,82,30.20,7.0,WNW,8.1,-,N/A,,Overcast,300,2013-03-06 22:53:00
6:53 PM,30.9,26.1,82,30.22,9.0,NW,6.9,-,N/A,,Overcast,310,2013-03-06 23:53:00
7:53 PM,30.9,26.1,82,30.24,8.0,NW,4.6,-,N/A,,Overcast,310,2013-03-07 00:53:00
8:53 PM,30.9,27.0,85,30.25,7.0,Calm,Calm,-,N/A,,Overcast,0,2013-03-07 01:53:00
9:53 PM,30.9,27.0,85,30.25,7.0,West,3.5,-,N/A,,Overcast,280,2013-03-07 02:53:00
10:53 PM,30.9,27.0,85,30.26,9.0,Calm,Calm,-,N/A,,Overcast,0,2013-03-07 03:53:00
11:53 PM,30.0,27.0,88,30.25,8.0,Calm,Calm,-,N/A,,Overcast,0,2013-03-07 04:53:00